Location: Bella Coola
(52.3721°N, 126.7539°W)
Time: 20:13:03
(UTC-07:00)

ISS - Pass Details

Date: 31 May 2019
Orbit: 408 x 418 km, 51.6° (Epoch: 18 June)

Event Time Altitude Azimuth Distance (km) Brightness Sun altitude
Rises 23:33:52 0° 277° (W) 2,358 0.6 -11.8°
Reaches altitude 10° 23:36:56 10° 247° (WSW) 1,493 -0.9 -12.0°
Maximum altitude 23:38:24 12° 221° (SW) 1,355 -1.4 -12.1°
Enters shadow 23:39:22 11° 203° (SSW) 1,416 -1.5 -12.1°
